RH
13 7 4 5 14 27 38 44 42 35 27 22 22 23 24 25 27 28 29 31 34 37 41 45 46 47 49 54 61 66 65 61 63 68 70 73 78 79 77 76 75 68 61 59 59 60 61 62 62 61 58 53 51 52 51 49 47 37 22 11 6 6 8 13 22 34 43 48 48 43 40 40 43 47 49 51 54 59 66 71 72 72 73 75 76
23 11 5 4 7 16 29 40 45 44 37 29 24 23 24 25 25 26 27 28 31 33 37 43 46 47 49 54 62 67 65 61 64 70 72 74 78 81 80 78 78 74 66 62 62 62 62 63 64 64 61 55 51 52 53 52 50 43 31 18 9 8 11 10 11 19 29 39 45 44 41 37 37 40 46 50 52 54 59 66 72 72 70 71 74
34 19 9 5 5 7 17 30 40 45 45 40 34 28 25 25 26 26 27 28 29 30 34 39 45 48 50 54 62 67 65 62 66 71 74 76 77 81 82 79 79 79 72 65 63 62 62 62 62 64 62 57 53 52 53 53 52 47 37 26 14 9 11 11 8 8 13 22 32 39 42 40 37 36 39 43 48 51 52 56 64 70 71 69 69
45 30 16 8 6 5 10 20 32 41 46 47 45 41 35 29 27 27 27 27 28 29 32 36 42 48 51 54 61 67 66 64 67 72 76 79 79 80 83 81 79 80 78 71 66 63 62 60 60 61 60 56 53 53 54 53 52 49 41 31 20 12 10 11 9 9 10 10 15 24 32 37 39 40 40 38 39 43 46 50 53 59 65 69 66
56 40 26 14 8 6 8 14 23 35 45 49 51 52 49 42 36 32 31 29 28 29 31 34 41 49 53 55 60 65 68 68 69 73 78 83 82 80 82 82 78 78 79 76 69 64 62 60 58 57 56 54 52 53 55 54 52 51 45 35 25 17 13 12 12 13 14 12 9 12 17 24 30 36 41 41 39 37 38 42 46 47 51 57 61
66 50 35 22 11 6 7 11 17 28 41 50 52 54 55 54 50 46 44 41 38 33 31 33 42 52 56 56 59 64 69 71 71 74 80 85 85 82 80 81 79 76 77 78 74 67 62 60 59 56 54 52 51 52 54 55 54 52 49 42 33 24 18 16 14 15 16 15 11 10 11 13 17 23 29 36 41 42 38 34 36 40 41 43 47
73 58 43 29 17 9 6 8 13 22 35 48 54 54 54 56 57 57 57 56 54 47 37 34 43 55 60 60 61 64 69 73 72 75 82 86 86 84 81 81 81 78 76 78 78 74 66 60 58 56 55 53 53 54 54 55 55 54 51 47 41 34 28 24 22 20 19 18 15 14 13 11 12 15 17 21 29 38 43 39 33 32 34 36 37
78 66 50 37 25 14 7 6 9 16 27 41 52 55 55 56 59 61 62 63 65 61 49 40 46 60 65 64 65 66 70 74 74 75 83 87 87 86 83 81 81 81 79 78 79 79 74 67 60 55 53 52 52 54 56 56 56 54 52 49 43 37 32 28 26 23 21 20 18 16 16 15 15 15 16 17 18 23 32 39 40 38 38 36 33
82 72 58 45 33 21 11 7 7 11 19 31 45 55 58 59 60 62 65 66 68 69 62 50 51 65 72 69 69 70 72 75 75 76 82 88 89 90 89 85 83 82 82 81 80 80 80 77 70 61 54 50 48 48 49 51 49 46 45 44 39 35 31 28 24 22 21 20 17 17 20 21 20 18 17 17 18 18 22 29 34 41 46 44 37
85 77 64 52 41 28 16 10 8 9 15 24 36 50 58 62 63 63 65 67 69 72 70 61 58 68 78 76 75 76 76 76 77 76 81 88 90 90 93 94 91 86 83 83 83 82 82 83 81 74 65 57 51 47 43 41 39 36 36 36 33 31 30 28 25 23 22 20 18 19 21 21 21 21 19 18 20 21 25 30 30 30 38 46 46
89 81 69 57 47 36 23 15 10 9 11 17 26 38 50 60 64 65 66 68 70 74 76 71 65 71 81 83 82 82 80 78 78 78 81 87 89 87 87 89 90 88 84 83 83 83 84 84 84 82 76 67 60 55 50 44 40 35 32 30 29 28 27 26 25 25 24 22 19 18 18 16 15 15 14 15 17 18 23 32 35 33 33 38 43
92 84 73 61 52 42 31 20 13 10 9 11 17 26 38 50 60 66 67 68 71 75 78 78 74 74 82 87 89 90 87 81 79 80 83 87 88 85 81 77 77 80 83 85 84 83 83 84 85 85 83 77 68 61 57 54 50 45 39 32 27 24 24 25 25 25 25 24 22 19 16 14 13 12 10 9 9 12 15 20 23 25 29 31 32
95 88 78 66 55 47 38 27 17 12 9 9 11 18 28 40 51 61 67 69 72 76 80 81 80 79 83 88 92 95 93 85 80 83 87 89 89 86 79 72 69 73 81 87 87 84 81 81 84 86 86 85 79 69 62 59 56 54 50 44 35 26 23 23 24 25 27 27 26 23 20 18 15 13 11 13 17 18 14 11 9 10 13 17 22
99 92 82 70 58 50 43 33 22 15 11 9 9 12 20 31 42 53 63 69 73 78 82 83 83 84 85 88 93 100 100 91 84 86 91 93 92 88 80 74 74 77 82 87 87 86 83 80 81 83 84 87 87 79 69 64 60 57 55 52 47 39 30 25 23 23 25 27 29 30 28 26 23 18 19 30 40 34 19 11 12 16 20 26 30
100 96 86 74 62 53 47 38 27 19 13 10 8 8 13 22 34 45 57 67 75 79 83 83 83 86 88 90 94 101 104 97 88 88 94 97 97 91 82 77 80 83 85 88 87 85 85 85 84 84 83 84 87 86 80 72 65 61 58 55 53 50 43 35 30 26 24 25 27 30 32 33 32 31 33 43 53 51 39 28 27 37 46 52 51
101 99 91 78 66 58 51 42 31 23 16 11 9 7 9 15 26 37 51 65 75 80 83 84 83 86 90 93 96 101 104 102 96 92 94 100 101 95 85 81 83 83 84 88 90 87 86 89 91 91 88 87 88 90 88 82 73 67 64 59 56 55 52 47 41 35 31 28 27 28 31 33 36 37 39 46 55 65 71 67 57 55 58 60 62
100 101 95 83 71 63 56 45 35 26 19 13 10 8 8 12 20 31 46 63 74 80 84 85 84 86 92 96 99 103 103 102 101 98 97 99 100 96 88 81 81 83 82 83 88 89 89 90 94 96 95 95 95 93 91 89 83 76 72 67 61 58 55 54 53 48 42 38 33 31 30 32 35 37 39 44 49 58 73 79 72 68 71 73 77
100 101 98 88 76 68 60 48 37 29 21 16 12 9 9 11 16 26 43 60 73 81 85 87 86 87 93 99 101 103 103 102 102 101 102 101 98 96 92 82 79 84 86 84 85 87 90 91 93 96 99 101 102 99 95 91 87 84 85 81 73 65 62 64 64 59 55 50 45 40 37 35 35 37 39 43 46 51 59 65 71 82 91 90 88
100 101 100 93 82 73 63 51 39 31 24 18 14 10 9 11 15 25 40 57 72 82 86 88 86 87 94 102 102 102 104 103 101 100 103 103 99 98 97 90 82 83 90 93 90 86 87 90 93 96 99 101 102 101 99 95 89 87 90 92 91 86 82 80 75 68 63 59 54 50 48 44 42 41 41 44 48 54 58 59 68 83 90 87 87
99 101 101 97 88 78 67 54 42 33 26 20 16 11 10 12 16 25 38 52 69 82 88 90 89 88 93 100 101 101 101 102 101 100 102 104 102 101 100 95 89 86 91 98 96 87 85 90 93 95 98 100 101 100 101 99 95 90 86 89 96 101 100 93 87 83 79 72 64 57 53 51 49 45 44 45 48 54 59 59 64 73 80 85 93
100 101 101 99 94 83 72 58 44 35 28 22 17 13 10 12 17 26 37 49 64 80 90 94 95 94 95 98 101 102 101 99 98 97 100 103 104 103 100 98 96 94 91 92 90 83 84 91 95 93 95 99 101 102 101 100 100 97 88 81 86 97 102 99 95 95 92 84 77 69 60 55 53 49 46 46 47 53 59 62 65 71 80 90 98
101 101 100 100 97 88 77 63 47 37 29 23 19 14 10 11 17 26 38 49 62 77 90 98 101 101 101 102 102 101 100 99 97 97 100 103 102 102 102 100 100 97 90 86 82 77 81 92 98 96 94 95 97 100 102 101 100 100 95 88 85 89 96 100 99 98 94 89 86 80 69 60 55 51 49 47 47 52 58 64 67 72 82 93 100
101 101 101 101 99 93 82 67 52 40 31 25 21 15 11 11 17 27 40 52 62 74 86 97 104 104 103 102 102 102 101 101 102 102 102 101 98 98 98 96 94 92 87 83 80 76 78 85 91 93 93 92 92 95 100 102 101 100 100 99 97 93 93 96 97 96 96 95 93 87 79 69 60 54 51 49 49 53 58 63 67 71 81 93 99
100 100 100 101 100 96 86 72 57 44 33 27 22 16 12 12 16 27 42 55 64 73 83 95 103 103 101 101 101 101 102 103 105 104 101 98 96 94 93 90 88 87 85 82 80 77 77 79 82 85 87 88 88 90 94 98 101 101 101 102 103 102 98 95 93 91 92 94 95 94 90 84 76 70 64 57 53 55 60 64 67 71 82 93 99
100 100 100 100 101 98 90 76 62 49 36 28 23 18 13 11 13 24 41 56 65 74 85 96 102 101 100 100 100 101 102 103 103 101 96 93 92 92 91 89 88 88 86 82 80 79 78 78 78 78 81 84 86 86 89 94 98 102 102 102 102 104 103 101 97 92 88 87 89 93 96 95 91 91 89 80 68 61 63 67 69 75 87 98 102
100 100 100 100 101 100 92 80 67 54 40 29 25 20 14 11 12 21 39 55 64 71 83 95 101 101 100 100 100 101 102 101 100 97 93 92 92 91 90 90 90 90 87 83 81 82 81 77 75 75 80 86 88 87 87 91 96 101 103 103 103 102 102 102 102 98 91 86 84 86 92 97 98 99 101 98 88 77 71 69 70 76 88 100 103
100 100 100 100 101 101 95 83 72 59 43 31 26 21 16 13 11 16 32 49 59 67 76 87 96 99 100 102 102 102 102 101 99 97 95 94 94 91 90 91 90 87 84 83 84 84 81 77 78 81 85 89 91 88 87 90 95 100 102 103 103 102 100 101 102 101 99 94 88 84 86 92 97 100 101 102 100 96 89 82 76 76 84 95 101
100 100 100 100 101 101 97 86 75 63 46 33 27 22 17 14 12 13 24 39 51 61 68 75 83 89 94 98 100 99 98 97 96 96 96 94 93 92 92 91 87 83 83 85 86 83 80 81 84 87 88 91 92 91 89 91 96 99 100 100 101 101 101 100 100 101 102 100 96 91 88 90 95 99 101 101 101 101 100 97 91 85 83 87 92
100 100 101 100 100 101 98 89 79 66 50 36 28 23 17 15 14 17 23 33 46 57 63 68 74 79 83 88 91 91 91 90 91 93 94 93 92 92 92 89 87 86 87 88 87 85 85 87 89 88 89 92 93 93 92 94 97 100 100 100 100 101 101 101 100 100 99 99 99 97 94 94 98 101 101 101 102 102 101 102 101 96 89 82 79
100 100 100 100 100 101 100 92 81 69 54 39 29 23 17 14 15 17 20 28 41 54 63 68 72 75 78 83 85 85 86 88 89 91 93 93 93 92 89 88 88 89 90 91 93 94 94 95 94 92 92 93 95 95 94 95 97 100 100 99 100 100 101 101 102 101 99 99 100 100 100 100 102 103 101 101 102 103 102 102 103 101 94 84 77
100 100 100 100 100 101 101 94 83 71 57 43 31 23 17 14 14 15 18 23 34 48 61 68 71 74 76 80 82 84 85 88 90 91 92 93 92 90 87 88 90 92 95 98 100 101 101 101 100 98 97 97 97 97 96 95 96 97 98 97 96 97 98 100 101 101 101 100 100 101 102 103 103 102 101 101 101 102 101 101 102 102 99 90 81
100 100 100 100 100 101 102 96 85 74 60 46 34 24 16 12 12 14 17 22 29 41 56 66 70 72 74 77 80 83 85 88 90 91 89 88 86 86 87 92 96 99 101 102 103 104 105 103 101 100 100 99 99 99 98 98 97 97 97 95 93 93 96 100 102 102 101 101 101 100 101 102 102 101 101 102 102 101 100 100 100 100 101 98 90
100 100 100 100 100 101 102 97 88 76 62 49 37 26 17 12 11 12 15 19 25 35 49 61 68 71 74 76 79 82 85 88 91 91 88 85 84 85 89 94 99 101 103 103 104 106 106 103 100 100 100 100 100 100 100 100 99 99 100 99 97 96 97 100 103 102 101 101 101 100 100 102 101 100 101 103 102 101 100 100 100 100 101 101 99
100 100 100 100 100 101 102 99 89 78 65 52 39 28 18 13 12 11 11 14 21 30 42 54 62 69 73 77 80 82 84 87 90 90 87 84 84 87 90 94 97 100 104 106 106 106 105 103 101 101 100 100 101 101 101 100 100 101 102 103 102 101 101 102 103 102 100 100 100 100 101 102 101 100 101 102 102 101 100 100 100 100 100 100 101
100 100 100 100 100 100 102 100 92 80 67 55 42 29 20 15 12 11 10 10 14 21 32 44 55 64 71 77 80 83 85 88 90 90 87 84 85 88 92 95 97 98 101 102 103 103 104 105 105 103 102 102 102 102 102 102 102 102 103 103 102 102 101 102 103 103 101 100 100 100 101 101 100 100 101 101 101 100 101 101 101 101 101 101 101
101 100 100 100 100 100 102 101 94 83 70 57 44 31 22 16 13 12 11 10 10 12 20 32 45 57 68 75 79 82 86 89 92 93 90 86 84 86 91 96 98 99 98 98 99 100 101 103 105 104 102 102 103 103 103 102 101 101 101 101 101 102 101 101 101 102 103 102 100 100 101 101 101 101 101 101 101 100 101 102 102 102 102 101 101
101 100 100 100 100 100 101 101 96 85 72 59 46 33 24 18 15 12 11 11 10 9 11 18 29 44 59 71 77 80 84 88 92 95 95 92 88 86 90 96 99 101 101 100 100 100 101 101 102 102 102 102 102 102 102 101 99 98 98 98 100 102 102 101 99 100 102 103 102 101 101 101 101 102 102 101 102 101 100 100 101 101 101 100 101
102 100 100 100 100 100 101 102 97 87 74 61 47 35 27 21 16 14 12 11 11 11 11 12 19 31 47 62 73 80 83 86 90 93 95 95 92 90 92 96 99 99 99 99 98 98 99 99 100 99 99 99 99 99 99 99 98 96 95 95 97 99 101 102 100 98 100 102 102 102 102 101 101 102 102 101 101 102 101 100 100 100 100 100 100
102 101 100 100 100 100 101 102 98 88 75 62 49 38 31 25 19 15 14 12 12 12 12 12 15 22 34 49 66 78 83 84 87 89 91 93 94 95 96 97 98 97 97 98 99 99 98 97 97 97 98 97 97 97 96 95 95 95 94 93 94 96 99 102 103 102 101 101 101 102 102 102 103 104 103 101 101 103 102 101 100 101 100 100 101
102 101 100 100 100 100 100 102 100 91 77 63 51 42 34 28 22 17 15 14 13 12 12 12 12 15 22 32 48 64 76 81 83 86 88 89 91 92 92 93 95 97 99 99 99 100 100 98 97 96 96 96 96 96 96 95 95 95 95 94 94 95 97 100 103 104 103 102 101 101 102 102 102 103 103 101 101 102 102 102 101 101 100 99 99
101 101 100 100 100 100 100 102 101 94 79 65 55 46 38 31 25 20 17 15 14 13 13 12 11 12 16 21 29 43 60 72 78 81 84 85 86 86 88 90 93 96 98 100 99 99 99 99 98 98 97 96 95 95 95 96 96 96 96 97 97 97 99 100 102 104 104 102 102 101 102 102 101 101 101 101 100 100 101 101 102 103 101 99 97
101 101 100 100 100 100 100 101 102 95 82 68 58 50 41 34 28 23 19 17 15 13 13 13 12 12 14 16 19 27 42 57 70 77 81 83 85 86 87 89 91 92 95 97 99 99 98 97 97 97 96 96 97 97 97 98 98 98 98 98 98 100 101 101 102 103 104 103 103 102 101 102 102 101 101 101 101 101 101 101 101 102 103 101 100
100 100 100 100 100 100 100 101 102 97 85 71 61 53 45 37 32 27 22 18 16 14 14 14 13 12 12 13 14 17 24 36 51 65 75 82 86 88 88 87 87 87 88 89 92 95 97 96 96 95 95 94 95 96 98 100 101 101 101 99 99 100 102 103 103 103 103 103 104 103 103 103 103 102 101 100 101 102 103 101 101 101 101 102 102
100 100 100 100 100 101 100 100 102 99 88 74 64 57 50 42 36 30 25 21 18 16 15 14 14 14 13 13 13 13 15 19 27 39 51 63 73 82 88 90 89 86 83 82 83 85 88 90 91 93 93 93 93 94 95 97 99 101 101 101 100 101 102 104 105 105 104 104 103 103 103 103 103 102 101 100 100 100 101 101 101 101 100 101 102
100 100 100 100 100 101 100 100 103 101 91 78 68 61 55 47 40 34 28 24 20 18 17 16 15 15 14 14 14 14 14 14 15 19 25 33 42 54 66 77 85 88 87 86 85 84 83 84 85 86 87 89 90 91 93 94 96 97 99 101 102 102 103 104 104 104 105 105 104 103 102 102 101 101 101 100 100 100 100 100 100 101 101 101 102
100 100 100 100 100 100 100 100 102 102 95 82 72 65 59 52 45 38 32 27 24 21 19 18 17 16 16 15 15 15 15 15 15 15 15 17 20 24 30 40 51 62 72 80 85 88 88 88 87 86 85 84 84 85 87 90 92 94 95 97 99 102 103 104 103 103 103 103 104 104 102 101 101 101 101 100 100 100 100 100 100 100 101 102 102
100 100 100 100 100 100 100 99 101 102 98 88 77 70 64 57 50 43 37 31 28 25 22 20 19 18 17 17 16 16 16 16 16 16 15 15 15 15 16 17 20 26 34 44 55 66 75 82 87 89 89 88 85 83 82 82 84 87 90 93 95 97 100 102 103 103 103 102 102 102 102 101 101 100 100 100 100 100 100 101 101 100 100 101 101
100 100 100 100 100 100 100 100 100 102 101 93 84 76 69 63 56 49 42 36 32 28 26 24 22 21 20 19 18 18 18 17 17 17 17 16 16 15 15 16 15 15 16 18 23 29 39 50 62 73 81 86 88 88 85 82 80 80 82 85 89 93 95 98 100 101 103 103 102 101 101 101 101 100 99 99 99 99 99 99 100 101 100 100 100
100 100 100 100 100 100 100 100 100 102 102 98 91 83 75 69 62 54 48 42 37 33 30 28 26 24 23 22 21 21 20 20 19 19 19 18 18 18 17 17 17 17 16 16 16 16 18 21 28 37 47 58 69 79 85 87 86 82 78 78 80 84 90 94 96 98 99 101 102 102 101 100 100 100 100 99 99 99 99 99 99 100 100 100 100
100 100 100 100 100 100 100 100 100 101 103 101 96 89 82 75 68 61 54 48 43 39 35 32 30 28 27 25 24 24 23 23 22 22 22 21 21 21 20 20 19 19 18 18 18 18 18 17 17 18 21 26 34 45 56 68 78 85 86 83 79 77 79 85 91 96 98 98 99 100 100 101 100 100 100 101 101 100 99 100 100 100 100 100 100
100 100 100 100 100 100 100 100 100 100 102 103 100 95 88 82 75 67 61 55 50 46 42 38 35 33 31 29 28 27 27 26 26 25 25 25 24 24 23 23 23 22 22 22 21 20 20 19 19 18 18 18 18 20 25 33 45 58 72 81 85 83 79 76 79 85 92 96 98 98 97 98 100 101 101 101 101 101 101 100 100 100 100 100 100
Wind_Speed
36 34 34 34 34 33 34 35 35 34 33 32 31 31 31 32 32 31 30 30 30 30 30 30 30 29 29 28 28 28 28 27 27 26 25 25 26 26 27 28 28 28 27 24 24 25 27 31 36 41 46 49 50 50 51 51 52 52 52 54 56 59 62 66 70 71 69 66 65 65 64 64 63 61 59 58 57 57 58 58 59 60 62 64 64
37 35 34 34 34 33 34 35 36 36 35 34 32 32 32 32 32 32 31 30 31 30 30 31 31 30 29 28 28 27 27 26 26 25 24 24 25 25 25 26 27 27 25 23 21 22 23 26 31 36 41 46 48 49 49 49 50 50 50 51 54 55 58 61 64 68 69 68 66 65 65 65 64 63 62 61 60 59 59 59 59 60 60 61 63
38 36 35 34 34 33 33 34 36 37 36 35 34 33 32 33 33 32 31 31 31 31 31 31 31 30 28 28 28 26 25 25 25 25 24 23 23 24 24 24 24 24 24 22 20 19 20 22 25 30 37 42 45 46 47 48 48 49 49 49 51 52 54 56 58 61 65 67 67 67 66 65 64 64 63 63 62 61 61 61 61 62 61 61 62
39 37 36 35 35 34 33 33 34 36 36 36 35 34 33 33 33 33 32 32 31 31 31 31 31 29 28 28 27 26 25 24 24 24 23 22 23 23 23 22 22 22 22 21 19 17 16 17 20 25 32 38 42 43 45 46 46 47 47 47 48 49 50 51 53 55 58 62 65 67 67 66 65 64 63 64 64 64 64 63 63 63 64 63 63
40 38 36 35 35 35 34 34 33 34 35 36 35 35 34 33 33 33 32 32 31 31 32 31 30 29 28 28 27 25 24 24 23 23 22 22 22 22 22 21 21 20 20 20 18 16 14 14 15 20 26 32 37 39 41 43 44 45 46 46 46 46 47 48 48 50 52 54 57 61 65 67 68 67 65 64 64 65 66 66 65 65 65 65 65
40 38 36 35 35 34 35 34 34 34 34 35 35 35 35 33 33 32 31 31 30 31 31 31 30 28 27 27 27 25 24 23 22 21 21 22 22 21 21 20 20 19 18 18 18 17 14 12 12 15 21 26 30 33 36 38 39 41 42 43 44 44 44 44 45 47 48 49 50 52 57 62 67 69 69 68 67 66 66 67 67 67 67 67 67
41 39 37 35 34 34 34 34 33 33 33 34 35 35 35 33 32 31 31 30 30 30 30 31 30 28 27 27 26 25 23 23 22 21 20 20 20 20 20 19 18 18 17 16 16 17 15 13 12 13 16 20 25 28 31 33 35 36 38 39 40 41 41 41 42 44 46 47 48 49 50 53 59 64 68 69 69 69 68 68 69 69 68 69 68
40 39 37 35 34 33 33 33 33 32 32 32 33 34 34 33 32 31 31 30 30 29 29 30 29 28 27 26 25 24 23 22 21 20 19 19 19 19 19 18 17 16 15 15 14 14 15 14 14 14 15 17 21 25 28 30 32 34 35 35 36 37 38 38 40 41 43 45 47 49 49 49 51 56 61 65 69 71 71 71 71 70 68 69 70
40 39 37 36 34 33 32 32 32 32 31 31 31 32 33 32 32 31 31 30 30 29 29 29 29 27 27 26 25 24 23 22 21 20 19 18 17 17 17 17 16 14 14 14 13 12 12 13 13 14 16 18 20 23 25 28 30 31 32 33 34 35 36 37 38 39 41 44 46 48 50 51 51 51 54 58 63 67 68 70 73 73 71 70 70
38 38 37 35 34 33 32 32 32 32 31 30 30 30 30 31 31 30 30 30 30 29 29 28 28 28 27 26 24 23 23 22 20 19 18 17 16 15 14 14 15 14 13 12 12 12 12 12 12 13 15 18 21 23 25 27 29 29 30 31 33 34 35 36 36 38 40 42 43 45 48 50 52 52 53 54 56 60 63 64 68 72 73 72 72
37 36 36 35 34 32 31 31 32 32 31 31 30 29 28 28 29 29 30 30 30 29 28 28 28 28 27 26 24 23 23 22 20 18 18 18 17 17 16 15 15 15 14 13 12 12 12 12 12 12 13 15 18 22 25 27 29 29 30 31 32 33 34 35 35 35 37 40 41 43 46 48 50 51 52 52 52 54 57 59 62 65 68 71 73
35 35 35 34 33 32 31 30 31 31 32 31 30 29 28 27 27 28 28 29 29 29 28 28 28 28 27 26 24 22 23 23 21 18 17 18 19 19 20 19 17 15 14 14 13 12 12 12 13 13 13 13 15 18 22 25 27 28 29 30 32 33 33 34 34 34 35 37 39 41 44 46 48 49 48 47 46 48 52 55 57 59 62 66 70
34 34 34 33 32 31 30 29 30 31 31 31 31 30 28 27 26 27 27 28 28 28 27 27 28 28 28 26 24 22 22 23 22 18 17 18 20 21 22 22 17 13 12 14 14 14 14 13 13 13 14 13 13 15 19 22 25 27 28 30 31 32 33 34 34 34 34 36 37 38 39 42 44 43 41 40 39 41 45 49 51 53 56 59 63
33 33 32 32 31 30 29 28 28 29 30 30 30 30 28 27 26 26 26 26 27 26 26 27 27 28 28 27 24 22 23 23 22 20 18 19 20 21 22 22 19 14 13 14 16 16 16 15 14 13 14 14 13 13 15 18 22 25 27 29 30 31 33 34 34 35 35 36 36 35 34 36 37 35 34 34 34 36 40 43 44 46 48 50 53
33 32 31 30 31 30 28 27 27 28 29 29 29 29 28 27 26 25 25 25 25 25 25 26 27 27 28 27 25 23 23 24 22 21 20 20 21 22 22 21 19 16 14 15 16 17 17 16 15 14 15 15 15 15 14 15 19 22 24 27 28 30 32 33 34 35 36 37 37 35 33 33 33 32 32 32 32 32 34 37 39 41 43 45 47
34 32 30 29 30 29 28 26 25 26 27 28 29 28 28 27 26 25 24 24 24 24 24 24 25 26 27 27 25 23 23 24 23 22 22 22 23 24 23 21 19 18 16 15 16 16 16 15 15 14 14 13 15 16 16 15 16 17 20 24 26 28 31 32 33 35 36 37 37 36 34 33 33 33 33 33 32 31 32 34 37 38 40 42 44
36 34 31 29 29 29 28 26 25 25 26 27 28 28 27 26 26 24 23 23 23 23 23 23 24 25 26 27 26 24 24 24 24 23 24 24 25 25 24 22 20 20 19 17 16 15 15 14 14 14 14 13 14 16 17 17 16 15 16 19 22 25 26 28 31 33 34 35 36 36 35 34 34 34 34 34 35 35 36 37 36 37 39 40 40
39 36 32 29 28 27 27 26 24 24 25 26 27 27 26 26 25 24 23 23 23 23 22 22 23 24 25 26 26 24 23 24 25 24 25 27 27 27 26 24 20 19 21 21 18 16 15 15 14 15 14 13 14 16 17 18 17 15 13 14 17 19 19 21 24 28 30 33 34 34 35 35 34 34 34 34 35 36 38 38 36 36 38 39 39
41 37 33 29 28 27 26 26 24 23 23 24 26 26 26 25 24 23 22 22 23 23 22 22 22 23 23 24 24 23 23 24 25 25 25 28 28 28 28 27 22 19 20 22 22 19 17 16 16 16 15 13 13 16 18 19 19 17 15 14 13 12 13 16 20 22 25 28 30 31 33 34 35 35 33 33 34 36 37 37 37 38 38 38 39
41 38 34 31 28 26 26 25 23 22 22 23 24 25 25 25 23 22 21 22 22 23 22 21 21 21 21 22 22 23 23 24 25 26 26 28 28 28 29 29 26 21 20 22 25 23 20 18 18 18 17 16 15 15 17 19 21 21 19 16 11 8 10 15 16 17 20 23 25 28 30 31 34 35 34 32 33 36 37 37 37 38 38 38 38
39 38 36 32 29 27 25 24 23 22 22 22 23 24 25 24 23 21 20 21 22 22 22 21 19 19 20 21 21 22 23 23 23 24 25 26 27 29 29 29 28 25 23 23 26 24 21 20 20 20 19 19 18 18 18 18 19 22 23 20 14 10 13 16 16 16 18 20 21 24 26 28 30 32 32 32 32 34 36 37 37 38 38 38 37
38 39 36 33 30 27 25 24 23 21 21 21 22 23 23 23 22 21 20 20 21 22 23 21 19 19 20 21 22 22 23 23 22 22 24 26 27 28 29 29 29 28 27 26 26 24 20 20 23 23 22 23 22 21 20 19 20 22 24 23 19 15 16 19 19 19 21 22 22 22 23 25 27 28 30 30 30 31 33 36 38 37 38 37 35
37 38 36 34 30 27 25 24 22 21 21 20 21 21 22 22 21 20 19 19 20 21 23 22 21 20 20 21 22 22 23 23 23 24 25 27 27 28 29 29 29 29 29 28 27 25 21 21 24 25 25 25 24 23 23 22 22 23 23 23 23 21 20 20 22 22 22 22 23 23 23 24 25 26 27 28 28 29 32 36 38 37 37 36 35
37 37 36 34 30 27 25 24 22 21 20 20 20 20 20 21 20 19 18 18 19 20 22 22 22 21 21 22 24 23 23 24 25 26 27 27 27 27 28 29 29 30 30 29 27 26 24 23 24 26 26 26 26 25 24 24 23 23 23 23 23 24 23 23 24 24 23 23 23 23 22 22 22 21 22 24 27 29 32 35 36 36 36 36 37
36 37 36 34 30 27 25 23 22 21 20 20 19 18 19 19 19 19 18 17 18 19 21 22 22 22 23 24 25 25 25 26 27 28 27 26 26 27 28 29 30 30 30 30 28 26 25 25 26 26 26 26 26 26 25 25 24 24 23 22 22 23 24 24 25 26 25 24 24 23 22 21 19 17 18 21 25 29 31 33 34 34 36 38 41
34 36 35 33 30 27 24 23 22 21 20 19 18 17 17 18 18 18 17 17 17 18 19 21 22 23 23 23 24 25 26 28 28 28 27 26 26 27 27 28 29 30 30 30 28 27 26 26 26 26 25 25 25 25 25 25 25 24 23 22 21 22 23 24 25 26 26 25 25 24 22 21 20 19 18 21 24 27 30 32 33 34 37 40 44
31 34 34 32 30 27 24 23 22 20 19 19 18 17 17 16 16 17 16 16 16 16 17 19 20 21 21 21 22 24 27 28 28 27 27 26 26 26 26 27 28 29 29 28 27 27 27 26 25 25 24 23 23 24 25 25 25 24 23 22 21 22 22 23 24 25 26 26 25 23 21 21 21 21 21 22 23 25 27 30 32 34 37 41 44
30 33 33 32 30 27 24 23 21 20 19 18 17 17 16 16 15 15 15 16 15 14 16 17 18 18 18 18 20 23 25 26 27 26 26 27 27 26 25 26 27 27 27 26 26 26 26 24 23 23 22 22 22 23 24 24 24 24 24 23 22 21 22 23 23 25 26 26 25 24 22 21 20 20 20 21 23 25 26 28 31 34 37 41 45
29 31 31 31 29 27 25 23 21 20 19 18 17 16 16 15 15 14 15 15 14 14 14 15 16 16 16 16 18 20 21 23 24 24 25 26 25 25 24 24 25 25 25 25 25 25 24 22 21 20 19 19 19 20 22 23 23 24 24 23 22 22 22 22 23 24 25 26 26 26 24 23 22 20 20 21 23 25 28 30 32 34 36 40 44
27 29 29 30 29 27 24 22 21 20 19 18 17 16 15 15 14 14 14 13 13 14 14 14 15 15 15 15 16 18 18 20 21 22 23 23 23 23 23 22 23 24 24 23 23 22 21 20 19 18 17 16 17 17 19 20 21 23 24 24 24 23 22 22 23 24 25 26 27 27 26 26 25 23 23 23 24 25 28 30 32 33 35 38 41
25 27 28 29 28 26 23 21 21 20 19 18 17 15 15 14 14 13 13 12 12 13 13 13 14 14 14 14 15 16 16 17 17 19 21 21 21 21 21 20 20 21 20 19 19 19 18 18 17 16 15 15 15 16 17 18 19 20 22 23 24 23 23 23 24 24 25 26 26 27 26 26 26 26 25 25 24 24 25 27 29 32 34 36 38
23 26 28 28 27 25 23 21 21 20 19 18 17 16 15 14 13 13 13 12 12 12 12 13 13 13 13 13 13 14 15 15 15 16 17 18 19 19 17 16 15 15 15 15 16 16 16 15 15 15 15 15 16 17 17 17 18 19 21 22 23 24 24 25 25 25 26 27 27 26 25 25 26 26 26 25 23 23 23 25 27 29 31 33 35
23 25 26 26 25 24 22 21 20 20 19 18 17 17 15 13 13 13 12 12 11 11 11 12 13 13 13 12 11 12 13 13 14 15 15 16 16 15 13 11 10 10 11 12 13 14 14 14 13 14 14 15 16 17 18 18 19 20 21 23 24 24 25 25 25 25 26 27 26 25 24 24 25 26 26 23 21 21 22 23 24 26 27 28 30
23 24 25 24 24 23 22 21 20 19 18 18 17 17 16 14 12 12 12 12 11 10 11 11 11 12 12 12 11 11 11 11 12 13 14 15 14 12 10 8 8 8 9 10 12 13 13 13 13 13 14 14 14 16 17 18 19 20 21 22 23 24 24 24 24 24 25 25 26 24 23 24 25 26 25 22 19 19 21 22 22 23 24 25 27
23 23 23 22 23 23 22 20 20 19 18 18 17 17 16 15 13 12 11 12 12 11 10 10 11 11 11 11 11 10 10 10 11 12 13 13 12 10 8 6 7 7 8 9 10 11 11 11 12 13 14 14 14 15 16 17 18 19 20 21 21 22 23 23 23 23 23 24 24 24 24 24 26 26 26 24 21 19 20 21 21 21 22 23 25
23 22 22 21 22 23 21 20 19 19 18 18 17 17 16 15 14 12 11 11 12 12 11 10 10 10 10 11 11 11 10 10 10 10 11 12 11 9 7 6 6 7 8 8 9 10 10 11 11 13 14 14 14 15 16 16 17 18 18 20 20 21 21 21 21 22 22 23 23 24 24 24 26 27 27 26 25 23 21 20 20 21 21 22 23
23 21 21 21 22 22 21 19 19 19 18 17 17 17 16 16 15 13 12 11 12 13 13 12 11 10 10 10 11 11 11 10 10 10 10 11 11 10 7 6 7 7 8 9 9 10 11 11 12 12 13 13 14 15 15 16 16 17 17 18 19 19 20 19 20 21 21 21 22 23 23 24 26 27 28 27 27 27 25 23 22 22 23 23 24
24 21 20 21 21 21 20 19 19 19 18 17 16 16 16 15 15 14 13 12 12 12 13 13 12 11 10 10 10 10 10 10 10 10 10 11 11 10 9 9 9 9 8 8 8 9 10 11 12 13 13 13 14 15 15 16 16 16 16 17 17 18 18 19 19 19 20 20 21 21 22 23 25 27 28 28 29 30 29 28 26 25 25 26 27
23 20 20 20 20 20 20 20 19 19 18 17 16 16 15 15 15 14 13 12 12 12 12 12 13 12 11 10 10 10 10 10 10 10 10 10 11 11 10 10 10 9 9 8 9 9 9 10 11 12 13 14 14 15 15 16 16 16 16 16 16 17 17 18 19 19 19 20 20 21 21 22 23 25 26 28 30 32 32 31 29 29 29 29 29
23 21 20 19 19 20 20 20 19 19 18 17 16 15 15 15 15 14 13 12 12 11 11 12 12 12 12 11 10 10 10 10 10 10 10 10 11 11 11 11 10 10 9 9 10 10 10 10 11 11 12 13 14 15 15 16 16 16 16 16 16 16 16 17 18 18 19 19 20 20 21 22 22 23 25 26 28 31 34 34 33 32 32 31 31
24 21 19 18 18 19 20 20 19 19 18 17 16 16 15 15 15 14 13 12 11 11 11 11 11 12 12 12 12 11 11 11 10 10 10 10 11 11 11 12 11 11 11 11 10 10 10 11 11 11 12 12 13 13 14 15 15 16 16 16 15 15 15 16 16 17 18 19 20 20 21 21 22 23 25 26 27 28 31 34 35 36 35 34 34
24 20 17 17 18 18 19 20 20 19 18 17 16 16 15 15 15 14 13 12 11 10 10 10 10 10 11 11 11 12 12 12 12 11 10 10 11 11 12 12 12 12 12 12 11 11 11 11 11 11 12 12 12 12 13 13 14 14 15 15 15 15 15 15 15 16 17 18 20 21 21 21 22 23 24 25 26 27 28 30 33 36 38 38 37
23 19 17 17 17 18 20 20 20 19 18 18 17 16 15 15 15 14 13 12 11 10 10 10 10 10 10 10 10 11 12 12 13 13 12 11 11 12 12 13 13 13 13 12 12 12 11 11 11 11 11 11 12 11 12 12 13 13 14 14 14 14 14 15 15 15 16 17 18 20 21 22 22 23 23 24 25 26 26 27 28 31 34 37 40
22 19 16 16 17 18 19 20 20 19 19 19 18 16 16 15 15 14 13 12 12 11 10 10 9 9 9 9 9 9 10 11 12 12 12 12 12 12 13 13 13 13 12 12 12 11 11 11 11 11 12 12 12 12 12 12 12 13 13 13 13 13 14 14 14 15 15 15 16 17 19 21 22 23 23 24 24 24 25 25 25 26 28 31 35
22 18 16 16 16 18 19 20 20 20 20 19 18 17 16 15 15 14 14 13 12 11 10 10 9 9 9 9 9 9 9 9 10 10 11 11 11 12 13 13 13 13 13 12 12 12 11 11 11 11 12 12 12 12 12 12 12 13 13 13 12 12 13 13 14 14 14 15 15 15 16 18 19 21 23 24 24 25 25 25 25 25 25 26 29
22 18 16 16 16 18 19 20 21 20 20 19 18 17 17 16 15 15 14 13 13 12 11 10 10 9 9 9 9 8 8 8 8 9 8 8 9 10 11 12 12 13 13 13 13 12 12 12 12 12 12 12 12 12 13 13 13 13 13 13 13 13 12 12 13 13 14 14 15 15 16 16 17 18 20 21 23 24 25 25 25 25 25 25 26
22 19 17 16 17 18 19 20 20 20 19 19 19 18 17 16 16 15 15 14 13 13 12 11 11 10 10 9 9 8 8 8 8 8 8 7 7 7 8 9 10 10 11 12 12 12 12 12 12 12 12 12 13 13 13 13 13 13 13 14 14 14 13 13 13 13 13 13 14 14 15 16 16 16 17 18 20 22 23 24 25 25 24 24 24
21 18 16 16 16 17 18 19 20 20 19 19 19 18 17 17 16 16 15 15 14 14 13 12 12 11 11 10 10 9 9 9 8 8 8 7 7 7 7 7 8 8 9 10 10 11 11 11 12 12 12 13 13 13 13 14 14 14 14 14 14 14 15 14 14 13 13 13 13 13 14 15 16 16 16 16 17 18 20 21 23 23 24 23 23
19 17 16 15 16 17 18 19 20 20 20 20 19 18 18 17 17 17 16 16 15 15 14 13 13 12 12 11 11 10 10 9 9 9 8 8 8 7 7 7 7 8 8 8 9 9 10 10 10 11 12 12 13 13 13 14 14 14 14 14 14 15 15 15 16 15 15 14 14 14 14 14 15 15 16 16 16 16 17 19 20 21 22 23 22
18 16 15 15 16 17 19 19 20 20 20 19 19 18 18 18 18 18 17 17 16 16 15 15 14 14 13 13 12 12 11 11 10 10 10 9 9 8 8 8 8 8 8 8 9 9 9 9 9 10 10 11 12 12 13 14 14 14 14 14 15 15 15 16 16 17 17 17 16 15 15 15 15 15 15 16 16 16 17 17 18 19 20 21 22
17 16 15 16 16 17 18 19 19 20 20 20 19 19 19 19 18 18 18 17 17 16 16 16 16 15 15 14 14 13 13 12 12 12 11 11 10 10 10 10 10 10 10 10 10 10 10 10 9 9 10 10 10 11 12 13 13 14 14 15 15 15 15 16 16 17 17 18 18 18 17 16 16 16 15 15 16 16 16 17 17 18 19 20 20
Wind_Direction
315 312 307 302 297 292 286 281 278 276 274 272 271 271 272 274 276 277 280 282 283 285 287 289 291 294 296 297 296 295 295 296 299 304 309 312 312 310 310 315 319 318 314 307 292 277 262 251 243 237 234 232 229 229 230 232 234 236 237 236 236 236 237 238 239 237 235 233 231 228 227 229 230 231 232 232 232 234 236 237 238 238 237 237 237
316 314 310 305 299 295 290 284 279 276 274 272 270 270 271 273 275 276 278 280 281 283 284 286 289 292 295 296 295 294 293 294 299 304 308 312 311 309 309 313 319 321 318 313 301 284 269 255 245 237 233 231 229 228 228 230 232 234 236 237 237 237 238 238 239 239 239 237 235 232 230 228 229 230 230 230 230 231 231 233 235 236 236 235 236
316 315 312 308 302 298 293 288 282 277 275 273 271 270 270 271 273 275 277 279 280 281 281 283 286 289 292 293 293 292 292 294 299 304 307 310 310 308 307 310 316 320 321 318 310 296 278 263 250 240 234 231 229 227 227 228 230 232 235 236 238 238 239 240 240 240 240 239 238 237 235 232 230 230 230 230 230 230 230 230 231 233 234 233 234
316 315 313 310 306 301 297 292 286 280 276 274 273 272 271 271 272 274 276 278 279 279 279 280 283 286 289 291 291 291 290 293 298 303 306 307 308 308 308 308 312 318 321 320 316 307 292 274 256 243 236 232 229 227 228 229 229 230 232 235 237 238 239 240 241 241 240 239 239 239 239 237 235 232 232 232 231 231 230 230 230 230 231 232 232
315 315 314 311 308 304 300 297 292 286 280 275 274 273 272 272 272 273 275 276 278 278 278 278 279 282 285 287 289 289 289 291 297 303 306 305 306 307 307 306 309 315 321 322 319 314 304 287 265 247 238 234 231 229 229 231 231 232 232 233 236 238 239 240 242 243 243 241 239 238 238 240 239 237 235 234 233 233 232 231 231 231 230 231 231
314 314 313 311 309 306 302 300 296 292 285 278 275 273 273 273 273 273 275 276 277 278 277 277 277 279 281 284 286 287 287 290 296 302 304 302 302 304 305 306 308 312 319 323 322 317 310 297 278 257 243 237 234 232 232 234 235 236 236 236 237 239 240 242 243 245 246 246 244 239 237 237 239 240 239 237 236 235 234 233 233 232 232 231 231
314 313 312 311 309 306 304 301 298 294 289 283 277 274 274 274 274 274 274 275 276 276 276 275 275 275 277 280 283 283 284 287 294 301 302 299 298 300 303 305 306 309 314 320 323 320 314 302 286 269 253 242 236 233 233 234 236 238 238 237 238 239 241 243 244 246 248 250 249 246 241 237 237 238 240 240 239 237 236 236 234 234 234 233 232
313 312 311 311 309 307 305 302 299 296 291 287 281 276 275 275 275 275 274 274 274 274 274 273 273 272 273 276 279 280 281 284 291 299 300 297 297 299 301 303 303 304 307 312 318 320 316 307 290 276 262 251 242 237 234 233 234 235 236 237 238 239 241 243 244 246 248 250 251 251 250 245 241 239 239 240 240 239 238 238 237 236 235 235 234
313 311 311 311 309 308 307 304 302 298 294 291 285 280 277 276 276 275 274 274 273 273 273 271 270 270 269 272 275 276 278 281 288 297 298 296 296 298 300 303 303 301 300 303 309 312 313 308 295 279 265 255 248 243 239 237 236 235 235 236 238 240 242 244 245 246 248 249 250 251 252 251 248 245 243 241 241 240 240 239 239 238 237 237 236
312 311 310 310 309 309 307 306 304 301 297 294 290 286 282 278 277 276 275 274 273 272 271 269 268 267 266 269 273 274 275 278 283 292 295 293 290 288 291 297 301 300 297 296 298 301 303 302 296 286 271 259 250 245 242 240 239 238 237 236 237 239 240 242 245 246 248 249 250 250 251 251 251 249 247 246 244 243 242 242 241 239 238 238 237
311 309 309 309 309 308 307 306 304 302 299 296 292 290 287 283 280 278 276 275 273 271 269 267 266 265 264 267 271 273 274 275 279 287 292 290 283 276 272 273 281 290 294 294 293 292 294 294 292 288 279 267 256 248 244 242 241 240 239 239 239 240 241 242 244 246 248 250 250 250 251 251 252 252 251 250 249 248 248 248 246 243 241 240 238
309 308 307 307 308 308 307 305 304 302 299 297 294 291 289 287 283 280 278 275 273 271 268 265 263 263 263 264 268 272 272 272 275 282 287 287 282 279 276 273 274 280 287 293 293 290 288 287 288 287 283 277 267 256 249 244 243 242 240 240 240 241 242 244 245 246 248 251 251 251 252 253 254 255 255 255 254 253 252 252 251 248 246 244 241
307 306 305 306 307 307 305 303 302 301 300 298 296 293 291 289 286 282 279 276 273 270 267 264 262 262 262 263 265 269 270 271 273 277 282 282 280 282 286 289 292 294 292 292 292 291 288 283 283 284 283 282 276 266 256 248 244 241 240 240 240 241 243 244 246 247 248 250 251 251 251 253 254 255 255 255 253 251 249 249 250 249 247 246 243
304 303 303 304 304 304 303 301 300 299 299 298 297 295 292 290 288 285 281 277 273 270 266 264 262 261 261 262 263 266 268 269 270 272 277 279 278 280 286 295 304 308 301 294 290 291 291 287 283 282 282 281 278 270 263 256 249 244 241 239 239 241 243 244 245 247 248 249 251 252 251 252 252 251 249 250 251 249 246 245 246 247 245 243 242
302 301 301 301 301 301 301 300 299 298 298 298 298 296 293 290 288 286 283 279 274 270 266 264 262 261 260 260 261 263 265 267 268 268 271 275 276 279 286 293 299 301 298 294 290 291 292 292 290 288 286 287 285 280 271 260 253 249 245 242 241 240 242 243 244 246 247 249 251 252 251 251 251 248 245 246 249 250 247 243 242 244 243 240 239
301 299 298 298 298 299 300 300 299 297 297 298 299 298 295 291 288 287 285 280 275 270 267 264 263 261 260 259 258 259 263 266 267 266 268 270 272 277 284 289 291 293 293 291 289 290 291 291 291 289 288 291 291 288 283 272 261 253 248 246 243 242 241 242 243 244 245 248 249 250 250 249 248 248 246 246 248 249 248 243 239 240 240 240 239
299 297 297 296 296 298 299 299 298 297 297 299 300 299 297 293 289 288 286 281 276 272 269 266 264 262 260 258 256 256 259 263 265 264 265 267 269 273 279 283 286 289 291 290 289 287 285 285 286 287 288 290 287 285 285 282 274 264 256 251 247 246 245 246 247 247 246 247 248 249 249 248 247 246 245 245 246 247 247 242 237 236 238 238 238
298 297 296 294 294 296 297 297 298 297 298 300 300 300 298 295 291 289 286 282 277 273 270 267 265 264 260 257 255 254 256 260 264 264 264 266 268 271 274 278 283 286 288 290 290 287 283 281 282 284 287 289 286 283 282 281 278 274 272 264 256 252 250 250 251 251 250 250 248 248 249 249 248 247 244 241 242 244 245 242 237 235 234 234 234
298 297 295 293 293 295 295 296 297 298 298 300 300 301 300 296 293 290 286 282 277 273 269 267 266 265 260 256 255 255 255 259 263 264 264 265 268 270 272 275 279 282 284 286 287 286 284 280 278 279 280 281 279 279 281 281 279 276 273 268 265 262 252 247 248 250 251 252 251 250 249 248 249 248 245 241 238 239 241 238 234 232 232 231 231
300 298 295 293 293 293 294 295 296 298 298 299 300 301 300 298 294 291 287 283 278 273 270 267 265 264 261 257 256 256 256 258 261 263 264 264 267 270 271 274 278 279 278 278 280 282 283 281 275 272 271 270 266 264 268 274 277 277 271 261 255 251 243 243 246 250 253 253 253 252 250 249 248 247 246 243 237 236 237 235 231 230 230 230 229
303 298 294 294 293 292 293 294 296 297 297 297 299 299 300 298 296 292 289 284 278 273 271 268 264 262 261 260 259 260 260 259 259 262 264 265 267 269 271 274 278 278 275 273 275 279 282 281 276 270 266 264 259 253 251 255 263 270 270 265 252 231 231 239 242 244 249 251 249 250 249 249 248 247 245 243 238 236 236 235 232 230 228 228 227
304 298 295 294 292 292 292 293 295 295 295 296 297 298 300 299 297 294 291 285 279 273 270 267 262 259 259 261 262 264 266 266 264 264 265 265 266 268 270 273 274 275 274 273 274 278 279 276 273 270 265 260 256 253 249 247 249 256 263 267 263 248 240 243 243 242 245 247 246 245 245 245 246 245 243 241 238 235 233 233 232 229 227 226 223
303 298 295 293 292 292 291 292 294 293 294 295 295 298 300 299 298 296 293 287 281 274 269 266 262 259 259 261 263 265 268 270 269 266 265 265 266 267 269 270 271 272 273 275 276 278 277 273 269 268 265 260 255 252 249 247 247 250 256 262 264 260 253 250 249 247 246 247 248 246 245 243 243 243 242 238 235 232 231 231 231 229 226 223 217
302 298 294 291 291 290 289 290 292 292 293 293 294 298 300 299 298 296 294 290 283 276 271 266 262 260 259 261 263 266 267 268 266 264 264 265 267 267 268 268 269 270 272 274 276 277 277 275 272 269 266 261 256 251 249 248 248 250 253 256 259 260 257 254 254 253 248 245 245 246 247 247 246 245 245 241 235 231 230 232 232 230 227 221 213
300 297 293 291 290 289 288 289 290 291 292 292 294 297 299 298 298 296 295 292 286 279 273 268 263 260 259 260 264 267 268 265 264 264 265 266 267 268 268 269 270 272 273 274 276 277 278 276 273 270 266 262 256 251 249 248 247 247 250 252 255 257 256 253 254 256 254 249 246 244 244 246 246 245 244 242 238 233 230 231 231 228 224 219 214
298 296 293 291 289 288 287 287 288 289 290 290 293 296 297 297 297 295 294 292 288 282 276 270 265 262 259 260 262 264 265 266 266 267 269 270 269 269 270 272 273 274 275 276 278 279 278 275 273 271 267 262 256 250 247 247 247 247 249 251 252 254 255 254 253 255 256 256 253 249 245 245 245 242 240 239 239 236 232 231 230 226 222 218 218
295 295 293 290 288 286 285 285 286 287 288 289 291 294 296 296 295 295 293 290 287 283 277 272 268 265 262 261 259 260 263 266 269 271 273 273 273 273 274 274 275 275 276 278 280 279 276 274 273 270 266 261 254 248 245 246 247 248 249 250 251 254 257 257 257 257 258 258 257 255 250 246 242 239 238 239 240 238 235 232 231 228 224 221 222
292 293 292 290 287 285 283 282 284 285 286 287 288 292 294 295 295 295 293 290 287 282 277 274 272 268 264 261 259 259 262 266 270 273 274 274 275 276 276 275 276 277 279 279 278 276 274 273 271 267 264 260 253 246 243 244 246 248 248 248 250 253 257 259 259 259 259 259 258 255 252 248 244 241 242 244 243 241 238 233 231 230 228 225 225
290 292 291 289 286 283 281 281 281 283 284 284 285 288 291 293 295 294 292 291 288 283 280 277 274 271 267 263 263 264 266 269 271 272 272 273 275 276 276 277 278 279 278 276 275 274 274 273 272 268 264 260 253 246 243 243 245 246 247 247 249 252 255 257 258 258 258 259 259 257 254 252 251 250 251 251 249 245 242 237 234 230 229 229 228
286 289 289 287 283 280 279 278 278 281 282 282 284 285 288 291 293 292 292 291 287 284 283 280 277 274 270 267 266 267 268 270 271 272 273 274 275 277 278 278 277 275 273 271 271 272 273 273 273 271 268 263 256 249 246 245 246 246 247 247 249 253 256 258 259 259 258 258 259 258 256 254 251 252 255 257 256 251 246 243 239 233 229 229 230
281 286 286 283 280 279 277 275 276 279 280 281 282 283 286 289 290 291 292 292 288 284 281 280 280 277 271 266 265 266 268 268 268 270 273 275 276 278 278 276 272 269 268 267 265 265 266 268 269 270 269 266 262 257 253 251 250 250 250 250 251 254 257 260 261 260 259 258 256 255 255 253 250 249 253 258 258 252 247 244 241 235 229 226 227
276 281 282 281 280 278 274 272 274 275 277 280 281 281 284 286 288 291 292 291 289 284 279 279 281 280 276 269 264 265 268 269 269 270 272 275 277 278 277 273 269 268 268 265 262 261 261 261 261 262 262 261 261 261 260 258 256 256 255 255 256 256 258 259 260 260 259 258 256 254 252 250 247 246 249 254 255 250 245 242 239 233 227 224 224
270 277 279 280 279 275 271 270 270 271 275 278 279 281 282 283 286 289 291 291 289 284 278 277 279 281 282 279 271 267 267 270 273 276 278 280 281 281 277 271 268 271 273 270 266 262 260 258 256 255 254 253 253 254 256 256 256 256 256 257 259 259 259 258 257 256 256 256 255 253 248 244 242 242 245 249 251 246 239 236 233 227 221 219 221
265 273 276 278 277 271 268 267 266 268 272 273 276 280 282 282 284 287 289 292 290 284 278 276 276 280 284 284 281 273 267 269 275 280 285 288 288 286 282 276 273 275 275 272 268 263 259 256 254 252 252 250 249 250 252 254 255 255 255 256 258 260 260 258 255 252 252 253 254 252 246 238 236 238 241 242 244 242 235 227 222 220 217 217 220
260 269 273 275 273 268 264 263 263 266 268 269 273 278 281 283 285 285 287 292 291 287 282 277 276 280 284 286 286 279 270 269 275 282 289 293 292 288 285 282 278 274 267 263 261 258 255 254 254 253 253 252 251 252 252 253 255 256 257 258 258 258 259 258 255 251 249 249 249 250 246 238 233 234 237 235 233 233 232 225 219 217 218 220 223
255 263 269 270 268 264 262 261 260 263 265 267 271 275 279 283 285 285 287 291 292 292 291 284 279 278 279 282 286 283 276 273 275 281 289 293 293 291 287 283 280 277 271 266 262 259 257 257 256 256 256 256 256 257 256 256 257 257 258 259 259 258 257 256 254 252 250 248 247 246 245 242 236 233 234 233 229 224 223 225 226 225 226 227 229
250 258 264 265 262 262 260 257 257 259 261 264 268 273 278 282 284 286 288 289 290 294 295 292 288 283 278 279 282 281 280 279 278 281 287 290 293 294 292 287 282 276 271 268 264 262 261 258 257 258 259 259 260 260 259 260 260 259 259 259 259 258 257 255 253 252 249 248 247 245 244 243 240 235 234 232 227 219 214 217 224 228 230 232 233
248 253 260 260 260 260 256 252 253 255 256 260 264 268 274 279 282 283 285 286 287 289 291 292 291 286 281 279 278 277 278 278 276 277 279 282 288 292 291 285 278 269 266 265 264 263 263 261 260 260 260 260 262 261 260 261 262 262 263 263 262 260 258 255 253 251 248 247 246 245 244 243 242 239 235 232 226 219 213 212 217 222 227 229 230
248 250 256 258 258 256 252 249 250 251 252 256 259 262 269 274 277 279 280 281 283 284 286 288 289 285 282 279 274 272 272 270 268 269 271 274 280 283 281 279 276 274 275 276 273 272 270 266 265 265 262 262 263 262 262 263 262 263 265 266 265 264 261 256 253 250 248 248 247 246 246 245 243 241 238 234 229 224 219 216 217 221 225 226 227
245 246 251 255 255 252 250 248 247 247 249 252 254 258 263 267 271 275 276 277 279 280 282 285 287 287 287 284 279 274 272 270 268 270 271 274 277 277 278 281 283 284 285 282 279 277 275 271 269 268 266 265 264 263 263 263 262 263 266 266 266 265 261 259 256 251 248 248 248 247 247 246 244 244 243 239 235 231 228 225 224 224 225 226 225
242 244 248 253 253 251 249 246 244 244 246 248 250 255 258 262 267 270 271 272 274 275 277 280 282 284 287 287 287 284 281 277 277 276 275 278 280 282 285 288 288 288 286 283 281 280 277 274 273 271 269 269 268 266 266 265 263 263 264 265 267 265 262 260 259 256 252 250 248 248 248 247 246 246 246 244 242 239 235 233 232 230 230 228 226
242 243 246 249 250 248 246 243 242 242 243 245 248 251 253 258 263 265 267 269 270 270 272 274 276 279 281 283 286 286 285 283 283 281 281 282 284 287 289 290 289 288 286 283 281 280 277 276 276 274 273 273 271 268 268 266 264 265 265 265 267 266 262 259 259 258 257 254 251 249 249 248 247 246 245 245 246 244 241 239 237 235 235 234 232
240 242 242 244 246 245 242 242 242 242 242 243 245 247 251 255 259 261 265 267 267 267 269 270 271 274 276 277 279 282 282 282 282 282 282 283 282 283 284 285 285 286 284 282 281 280 277 277 277 276 276 276 274 272 270 265 262 263 264 265 266 265 262 260 259 259 260 259 255 252 250 249 248 247 245 244 245 245 245 245 242 239 237 237 236
240 241 240 242 244 243 242 242 241 240 240 242 243 245 248 251 254 259 262 264 266 267 267 267 269 272 273 273 275 276 276 276 276 275 275 275 274 274 275 275 276 277 278 278 279 278 278 279 279 278 279 279 278 277 274 269 265 262 261 262 264 263 261 260 260 260 261 262 260 257 254 251 250 249 247 246 245 245 246 247 246 245 242 240 239
240 239 238 240 241 240 239 240 238 238 239 241 242 244 246 248 252 256 258 261 264 265 264 266 268 268 269 272 272 272 272 272 271 269 268 267 267 268 268 268 269 269 269 270 272 273 275 276 277 278 279 279 279 278 277 273 270 267 263 262 262 261 259 259 258 258 259 260 260 260 257 254 252 251 250 249 247 246 245 245 245 246 246 244 241
239 237 235 236 238 238 238 237 236 237 238 240 241 243 245 246 250 253 255 258 261 262 263 264 265 265 266 269 269 270 272 272 271 271 269 267 266 266 266 266 267 267 266 266 267 267 269 270 272 275 277 277 278 278 277 275 274 271 268 266 263 260 259 258 257 257 258 258 258 259 258 257 256 254 252 251 249 247 246 245 244 243 244 244 243
240 237 233 234 236 238 238 238 237 237 237 239 241 243 244 245 248 250 253 256 258 259 261 263 263 263 265 266 266 269 271 271 272 274 274 273 272 271 270 271 272 271 271 270 268 267 267 268 268 271 273 275 276 277 276 276 275 273 271 270 267 264 262 259 257 257 257 257 258 258 258 258 258 257 256 254 252 250 248 246 244 243 243 242 242
241 237 233 233 236 239 240 240 239 237 237 239 241 242 243 245 247 249 251 253 255 257 259 260 261 263 264 264 266 268 269 270 273 275 275 277 280 279 278 279 279 278 278 278 276 275 274 272 271 271 271 271 273 275 276 277 277 276 275 274 271 269 266 263 260 258 258 257 258 259 259 259 260 260 259 258 256 254 251 248 245 243 242 240 239
241 236 233 233 235 237 239 239 238 237 237 239 240 242 244 244 245 248 249 251 253 255 257 258 259 261 262 264 266 267 268 271 273 274 275 278 279 280 282 283 282 281 282 282 281 282 281 278 276 275 274 273 273 273 274 275 276 277 278 277 275 274 272 269 265 262 260 258 258 258 258 259 260 261 260 260 258 257 255 251 246 243 240 239 238
239 236 233 232 234 236 238 238 238 238 238 239 241 242 243 243 245 247 248 250 252 254 255 257 258 259 260 262 264 265 267 270 272 273 275 277 277 279 281 282 282 283 283 282 282 282 282 281 281 280 279 279 278 276 275 274 274 274 275 276 276 276 275 273 271 268 265 261 259 258 258 258 259 259 260 260 259 258 257 254 250 245 240 237 236
238 236 233 233 235 237 239 239 239 238 238 239 240 241 242 244 245 246 248 250 252 253 254 256 258 259 260 262 263 265 267 268 270 272 274 275 276 278 279 279 281 283 282 282 283 283 282 282 283 283 282 282 282 282 281 279 276 274 273 273 274 274 274 274 273 271 269 266 263 260 258 258 258 258 259 259 259 258 257 255 253 249 244 239 236